Weather History for MMHO - November, 2012

Change the Weather History Date:

Sunday, November 25, 2012

  Actual Average Record
Temperature  
Mean Temperature 72 °F -  
Max Temperature 87 °F 75 °F 95 °F (1997)
Min Temperature 57 °F 45 °F 42 °F (1999)
Cooling Degree Days 7    
Growing Degree Days 22 (Base 50)    
Moisture  
Dew Point 37 °F    
Average Humidity 33    
Maximum Humidity 55    
Minimum Humidity 13    
Precipitation  
Precipitation 0.00 in - - ()
Sea Level Pressure  
Sea Level Pressure 29.91 in    
Wind  
Wind Speed 2 mph ()    
Max Wind Speed 8 mph    
Max Gust Speed -    
Visibility 10.3 miles    
Events      
Averages and records for this station are not official NWS values.
T = Trace of Precipitation, MM = Missing Value Source: Averaged Metar Reports

Daily Weather History Graph

Daily Weather History Graph

Search for Another Location

Airport or City:

Trip Planner

Search our weather history database for the weather conditions in past years. The results will help you decide how hot, cold, wet, or windy it might be!

Date:

Astronomy

Nov. 25, 2012 Rise Set
Actual Time 6:56 AM MST 5:26 PM MST
Civil Twilight 6:30 AM MST 5:51 PM MST
Nautical Twilight 6:01 AM MST 6:20 PM MST
Astronomical Twilight 5:33 AM MST 6:49 PM MST
Moon 3:38 PM MST (11/25) 4:22 AM MST (11/25)
Length of Visible Light 11h 21m
Length of Day
10h 30m
Waxing Gibbous, 93% of the Moon is Illuminated
Nov 25
Waxing Gibbous
Nov 28
Full
Dec 6
Last Quarter
Dec 13
New
Dec 19
First Quarter

Hourly Weather History & Observations

Time (MST) Temp. Dew Point Humidity Pressure Visibility Wind Dir Wind Speed Gust Speed Precip Events Conditions
12:43 AM 60.8 °F 41.0 °F 48% 29.94 in 10.0 mi Calm Calm - N/A   Clear
1:42 AM 59.0 °F 42.8 °F 55% 29.91 in 10.0 mi Calm Calm - N/A   Clear
2:45 AM 59.0 °F 42.8 °F 55% 29.94 in 10.0 mi Calm Calm - N/A   Clear
3:41 AM 59.0 °F 37.4 °F 45% 29.93 in 10.0 mi Calm Calm - N/A   Clear
4:47 AM 59.0 °F 37.4 °F 45% 29.93 in 10.0 mi Calm Calm - N/A   Clear
5:45 AM 59.0 °F 35.6 °F 42% 29.93 in 10.0 mi Calm Calm - N/A   Clear
6:43 AM 57.2 °F 35.6 °F 44% 29.94 in 10.0 mi ENE 3.5 mph - N/A   Clear
7:40 AM 60.8 °F 35.6 °F 39% 29.97 in 10.0 mi ENE 5.8 mph - N/A   Partly Cloudy
8:41 AM 66.2 °F 35.6 °F 32% 29.97 in 10.0 mi East 4.6 mph - N/A   Scattered Clouds
9:41 AM 73.4 °F 37.4 °F 27% 29.98 in 10.0 mi East 4.6 mph - N/A   Partly Cloudy
10:42 AM 78.8 °F 37.4 °F 23% 29.94 in 10.0 mi East 6.9 mph - N/A   Clear
11:49 AM 80.6 °F 35.6 °F 20% 29.95 in 10.0 mi SE 4.6 mph - N/A   Partly Cloudy
12:43 PM 84.2 °F 30.2 °F 14% 29.91 in 10.0 mi SSW 3.5 mph - N/A   Partly Cloudy
1:42 PM 86.0 °F 30.2 °F 13% 29.87 in 10.0 mi Calm Calm - N/A   Partly Cloudy
2:43 PM 86.0 °F 32.0 °F 14% 29.87 in 12.0 mi WSW 4.6 mph - N/A   Partly Cloudy
3:44 PM 87.8 °F 33.8 °F 15% 29.86 in 12.0 mi SSW 8.1 mph - N/A   Scattered Clouds
4:44 PM 84.2 °F 33.8 °F 16% 29.83 in 12.0 mi SSW 8.1 mph - N/A   Scattered Clouds
5:52 PM 77.0 °F 39.2 °F 26% 29.86 in 12.0 mi SW 3.5 mph - N/A   Scattered Clouds
6:44 PM 73.4 °F 39.2 °F 29% 29.87 in 10.0 mi WSW 4.6 mph - N/A   Scattered Clouds
7:41 PM 69.8 °F 39.2 °F 33% 29.88 in 10.0 mi SW 3.5 mph - N/A   Scattered Clouds
8:46 PM 68.0 °F 39.2 °F 35% 29.91 in 10.0 mi Calm Calm - N/A   Scattered Clouds
9:43 PM 66.2 °F 39.2 °F 37% 29.92 in 10.0 mi Calm Calm - N/A   Scattered Clouds
10:42 PM 64.4 °F 41.0 °F 42% 29.89 in 10.0 mi Calm Calm - N/A   Mostly Cloudy
11:41 PM 64.4 °F 42.8 °F 45% 29.94 in 10.0 mi NE 3.5 mph - N/A   Mostly Cloudy